Погода в Подгородном

Украина / Днепропетровская область     48°34′29″N   35°06′08″E
темп.,
°C
ветер,
м/с
пор.,
м/с
влажн.,
%
обл.,
%
осадки,
мм/ч
давл.,
гПа
погр.,
м
12 мая, ср
ср1200:00+8ссв51077100 0.1 1015831
03:00+8св5980100 0.3 1014782
06:00+8всв598981 0.6 1014772
09:00+8всв588882 1.7 1014789
12:00+8всв3588100 2.1 1014786
15:00+10юв127651 3.2 1013613
18:00+12ююв1263100 0.3 1012777
21:00+9зсз228495 0.3 101332
13 мая, чт
чт1300:00+8юв1186100 0.0 101318
03:00+7ю228674 0.0 101457
06:00+7ююв128699 0.0 101441
09:00+13юв23654 0.0 1014570
12:00+18ююв355139 0.0 10141408
15:00+21ююв2446100 0.0 10121687
18:00+21вюв2353100 0.0 1012736
21:00+17в386743 0.0 1012236
14 мая, пт
пт1400:00+15юв367898 0.0 1011135
03:00+14юв3788100 0.0 1011142
06:00+14юв269248 0.0 1010164
09:00+20ю3568100 0.0 1010538
12:00+24ю4542100 0.0 10101056
15:00+25ю5637100 0.0 10101354
18:00+24ююз3646100 0.0 1010728
21:00+19ююз2461100 0.0 101093
15 мая, сб
сб1500:00+16юз25735 0.0 1010129
03:00+14юз247986 0.0 1011106
06:00+14юз247973 0.0 1012108
09:00+19юз46595 0.0 1012550
12:00+23зюз5644100 0.0 10131734
15:00+24зюз463829 0.0 10122455
18:00+21юз3450100 0.0 1013194
21:00+18ссз116296 0.0 101314
16 мая, вс
вс1600:00+17св11653 0.0 101311
03:00+16вюв116971 0.0 101311
06:00+15всв227199 0.0 101342
09:00+21в355635 0.0 1012498
12:00+25в564384 0.0 10121707
15:00+27в564046 0.0 10101954
18:00+26всв4749100 0.0 10091063
21:00+21св41071100 0.0 1009296